| time (UTC) | temp F | wind direction | speed knots | gust knots | rain 1hr in | rain 24hr in | rain mn in | humidity % | barometer mb |
| 20260510151512 | 58 | 188 | 10.4 | 15.6 | 0.00 | 0.00 | 0.00 | 59 | 929.1 |
| 20260510150007 | 57 | 190 | 12.2 | 17.4 | 0.00 | 0.00 | 0.00 | 60 | 929.2 |
| 20260510144504 | 56 | 196 | 10.4 | 14.8 | 0.00 | 0.00 | 0.00 | 63 | 929.3 |
| 20260510143052 | 55 | 194 | 11.3 | 14.8 | 0.00 | 0.00 | 0.00 | 66 | 929.3 |
| 20260510141539 | 53 | 190 | 9.6 | 14.8 | 0.00 | 0.00 | 0.00 | 69 | 929.4 |
| 20260510140017 | 51 | 194 | 10.4 | 13.9 | 0.00 | 0.00 | 0.00 | 73 | 929.5 |
| 20260510134513 | 49 | 188 | 7.8 | 10.4 | 0.00 | 0.00 | 0.00 | 75 | 929.5 |
| 20260510133052 | 47 | 187 | 7.8 | 9.6 | 0.00 | 0.00 | 0.00 | 76 | 929.5 |
| 20260510131550 | 46 | 190 | 5.2 | 8.7 | 0.00 | 0.00 | 0.00 | 78 | 929.7 |
| 20260510130033 | 44 | 196 | 4.3 | 6.1 | 0.00 | 0.00 | 0.00 | 79 | 929.6 |
| 20260510124535 | 44 | 193 | 5.2 | 6.1 | 0.00 | 0.00 | 0.00 | 80 | 929.6 |
| 20260510123014 | 43 | 192 | 6.1 | 7.0 | 0.00 | 0.00 | 0.00 | 80 | 929.5 |
| 20260510121514 | 43 | 186 | 5.2 | 7.0 | 0.00 | 0.00 | 0.00 | 80 | 929.5 |
| 20260510120057 | 43 | 185 | 5.2 | 7.0 | 0.00 | 0.00 | 0.00 | 80 | 929.6 |
| 20260510114555 | 43 | 182 | 7.0 | 7.8 | 0.00 | 0.00 | 0.00 | 79 | 929.4 |
| 20260510113036 | 44 | 185 | 7.8 | 8.7 | 0.00 | 0.00 | 0.00 | 77 | 929.5 |
| 20260510111533 | 45 | 182 | 8.7 | 10.4 | 0.00 | 0.00 | 0.00 | 76 | 929.5 |
| 20260510110014 | 46 | 180 | 8.7 | 11.3 | 0.00 | 0.00 | 0.00 | 75 | 929.5 |
| 20260510104513 | 46 | 175 | 8.7 | 10.4 | 0.00 | 0.00 | 0.00 | 74 | 929.6 |
| 20260510103052 | 47 | 183 | 8.7 | 10.4 | 0.00 | 0.00 | 0.00 | 74 | 929.6 |
| 20260510101550 | 46 | 173 | 6.1 | 8.7 | 0.00 | 0.00 | 0.00 | 75 | 929.6 |
| 20260510100031 | 46 | 165 | 4.3 | 7.8 | 0.00 | 0.00 | 0.00 | 76 | 929.8 |
| 20260510094537 | 46 | 164 | 4.3 | 7.0 | 0.00 | 0.00 | 0.00 | 77 | 929.8 |
| 20260510093016 | 46 | 166 | 5.2 | 7.8 | 0.00 | 0.00 | 0.00 | 77 | 929.8 |
| 20260510091521 | 47 | 157 | 3.5 | 4.3 | 0.00 | 0.00 | 0.00 | 77 | 929.8 |
| 20260510090013 | 46 | 134 | 2.6 | 3.5 | 0.00 | 0.00 | 0.00 | 77 | 929.9 |
| 20260510084513 | 47 | 132 | 2.6 | 3.5 | 0.00 | 0.00 | 0.00 | 77 | 930.0 |
| 20260510083013 | 47 | 126 | 2.6 | 3.5 | 0.00 | 0.00 | 0.00 | 77 | 929.9 |
| 20260510081511 | 46 | 72 | 1.7 | 2.6 | 0.00 | 0.00 | 0.00 | 78 | 930.1 |
| 20260510080010 | 46 | 71 | 1.7 | 3.5 | 0.00 | 0.00 | 0.00 | 79 | 930.0 |
| 20260510074510 | 45 | 63 | 2.6 | 3.5 | 0.00 | 0.00 | 0.00 | 78 | 930.0 |
| 20260510073050 | 45 | 189 | 0.0 | 2.6 | 0.00 | 0.00 | 0.00 | 77 | 929.9 |
| 20260510071549 | 48 | 190 | 5.2 | 7.0 | 0.00 | 0.00 | 0.00 | 77 | 929.8 |
| 20260510070031 | 48 | 200 | 5.2 | 6.1 | 0.00 | 0.00 | 0.00 | 79 | 929.8 |
| 20260510064532 | 47 | 203 | 4.3 | 5.2 | 0.00 | 0.00 | 0.00 | 80 | 929.7 |
| 20260510063013 | 46 | 196 | 5.2 | 7.8 | 0.00 | 0.00 | 0.00 | 82 | 929.7 |
| 20260510061513 | 47 | 193 | 5.2 | 7.8 | 0.00 | 0.00 | 0.00 | 80 | 929.7 |
| 20260510060053 | 48 | 176 | 3.5 | 5.2 | 0.00 | 0.00 | 0.00 | 78 | 929.7 |
| 20260510054548 | 49 | 176 | 5.2 | 7.0 | 0.00 | 0.00 | 0.00 | 79 | 929.7 |
| 20260510053028 | 49 | 163 | 2.6 | 7.0 | 0.00 | 0.00 | 0.00 | 81 | 929.6 |
| 20260510051528 | 48 | 127 | 4.3 | 7.0 | 0.00 | 0.00 | 0.00 | 80 | 929.6 |
| 20260510050009 | 49 | 109 | 4.3 | 7.8 | 0.00 | 0.00 | 0.00 | 80 | 929.6 |
| 20260510044506 | 49 | 126 | 7.0 | 8.7 | 0.00 | 0.00 | 0.00 | 79 | 929.7 |
| 20260510043145 | 50 | 123 | 5.2 | 7.8 | 0.00 | 0.00 | 0.00 | 78 | 929.7 |
| 20260510041549 | 50 | 137 | 4.3 | 7.0 | 0.00 | 0.00 | 0.00 | 78 | 929.5 |
| 20260510040043 | 51 | 103 | 6.1 | 8.7 | 0.00 | 0.00 | 0.00 | 77 | 929.5 |
| 20260510034533 | 52 | 113 | 6.1 | 8.7 | 0.00 | 0.00 | 0.00 | 76 | 929.4 |
| 20260510033033 | 52 | 98 | 5.2 | 7.8 | 0.00 | 0.00 | 0.00 | 76 | 929.2 |
| 20260510031551 | 51 | 124 | 5.2 | 8.7 | 0.00 | 0.00 | 0.00 | 76 | 929.1 |
| 20260510030029 | 51 | 107 | 6.1 | 7.8 | 0.00 | 0.00 | 0.00 | 75 | 929.0 |
| 20260510024530 | 53 | 109 | 4.3 | 7.8 | 0.00 | 0.00 | 0.00 | 72 | 928.8 |
| 20260510021523 | 57 | 75 | 6.1 | 8.7 | 0.00 | 0.00 | 0.00 | 64 | 928.6 |
| 20260510020020 | 59 | 58 | 7.8 | 13.0 | 0.00 | 0.00 | 0.00 | 58 | 928.5 |
| 20260510014520 | 64 | 246 | 0.9 | 2.6 | 0.00 | 0.00 | 0.00 | 47 | 928.5 |
| 20260510011525 | 64 | 229 | 3.5 | 7.0 | 0.00 | 0.00 | 0.00 | 45 | 928.3 |
| 20260510010025 | 65 | 214 | 6.1 | 8.7 | 0.00 | 0.00 | 0.00 | 43 | 928.4 |
| 20260510004520 | 65 | 229 | 6.1 | 10.4 | 0.00 | 0.00 | 0.00 | 44 | 928.4 |
| 20260510001554 | 64 | 207 | 4.3 | 7.0 | 0.00 | 0.00 | 0.00 | 44 | 928.4 |
| 20260510000053 | 65 | 204 | 6.1 | 10.4 | 0.00 | 0.00 | 0.00 | 43 | 928.4 |
| 20260509234536 | 65 | 221 | 5.2 | 10.4 | 0.00 | 0.00 | 0.00 | 43 | 928.3 |
| 20260509233034 | 65 | 227 | 6.1 | 8.7 | 0.00 | 0.00 | 0.00 | 42 | 928.2 |
| 20260509231513 | 65 | 233 | 4.3 | 8.7 | 0.00 | 0.00 | 0.00 | 42 | 928.2 |
| 20260509230013 | 65 | 286 | 0.9 | 9.6 | 0.00 | 0.00 | 0.00 | 40 | 928.3 |
| 20260509224604 | 65 | 225 | 7.0 | 13.0 | 0.00 | 0.00 | 0.00 | 40 | 928.4 |
| 20260509223057 | 65 | 179 | 1.7 | 7.0 | 0.00 | 0.00 | 0.00 | 42 | 928.3 |
| 20260509221538 | 65 | 163 | 5.2 | 10.4 | 0.00 | 0.00 | 0.00 | 43 | 928.3 |
| 20260509220036 | 64 | 233 | 4.3 | 9.6 | 0.00 | 0.00 | 0.00 | 44 | 928.5 |
| 20260509214521 | 64 | 184 | 5.2 | 8.7 | 0.00 | 0.00 | 0.00 | 46 | 928.5 |
| 20260509213022 | 63 | 220 | 0.9 | 7.8 | 0.00 | 0.00 | 0.00 | 45 | 928.5 |
| 20260509211543 | 64 | 215 | 7.0 | 12.2 | 0.00 | 0.00 | 0.00 | 45 | 928.6 |
| 20260509210020 | 63 | 218 | 7.8 | 11.3 | 0.00 | 0.00 | 0.00 | 45 | 928.6 |
| 20260509204519 | 64 | 135 | 3.5 | 8.7 | 0.00 | 0.00 | 0.00 | 44 | 928.4 |
| 20260509203033 | 64 | 171 | 5.2 | 9.6 | 0.00 | 0.00 | 0.00 | 41 | 928.3 |
| 20260509201521 | 63 | 324 | 3.5 | 11.3 | 0.00 | 0.00 | 0.00 | 43 | 928.3 |
| 20260509200016 | 64 | 232 | 7.8 | 12.2 | 0.00 | 0.00 | 0.00 | 42 | 928.3 |
| 20260509194547 | 64 | 298 | 2.6 | 7.8 | 0.00 | 0.00 | 0.00 | 37 | 928.4 |
| 20260509193046 | 64 | 350 | 3.5 | 7.0 | 0.00 | 0.00 | 0.00 | 37 | 928.4 |
| 20260509191528 | 65 | 234 | 3.5 | 10.4 | 0.00 | 0.00 | 0.00 | 36 | 928.4 |
| 20260509190026 | 64 | 10 | 1.7 | 3.5 | 0.00 | 0.00 | 0.00 | 38 | 928.4 |
| 20260509184504 | 63 | 314 | 1.7 | 4.3 | 0.00 | 0.00 | 0.00 | 39 | 928.4 |
| 20260509183011 | 63 | 310 | 1.7 | 6.1 | 0.00 | 0.00 | 0.00 | 39 | 928.2 |
| 20260509181554 | 62 | 300 | 1.7 | 3.5 | 0.00 | 0.00 | 0.00 | 39 | 928.2 |
| 20260509180045 | 62 | 322 | 2.6 | 5.2 | 0.00 | 0.00 | 0.00 | 40 | 928.2 |
| 20260509174524 | 62 | 279 | 0.9 | 3.5 | 0.00 | 0.00 | 0.00 | 40 | 928.1 |
| 20260509173022 | 61 | 180 | 0.9 | 3.5 | 0.00 | 0.00 | 0.00 | 41 | 928.0 |
| 20260509171504 | 61 | 313 | 0.9 | 4.3 | 0.00 | 0.00 | 0.00 | 42 | 927.9 |
| 20260509170003 | 61 | 113 | 3.5 | 7.0 | 0.00 | 0.00 | 0.00 | 43 | 927.7 |
| 20260509164546 | 61 | 107 | 3.5 | 5.2 | 0.00 | 0.00 | 0.00 | 42 | 927.7 |
| 20260509163055 | 61 | 209 | 0.0 | 6.1 | 0.00 | 0.00 | 0.00 | 40 | 927.7 |
| 20260509161530 | 61 | 147 | 0.9 | 4.3 | 0.00 | 0.00 | 0.00 | 42 | 927.6 |
| 20260509160027 | 60 | 200 | 1.7 | 3.5 | 0.00 | 0.00 | 0.00 | 45 | 927.5 |
| 20260509154523 | 59 | 195 | 1.7 | 4.3 | 0.00 | 0.00 | 0.00 | 48 | 927.5 |
| 20260509153023 | 58 | 213 | 5.2 | 7.0 | 0.00 | 0.00 | 0.00 | 50 | 927.4 |